| time (UTC) | temp C | wind direction | speed KPH | gust KPH | rain 1hr cm | rain 24hr cm | rain mn cm | humidity % | barometer mb |
| 20260504202203 | 14 | 209 | 19.3 | 30.6 | 0.00 | 0.00 | 0.00 | 79 | 1007.6 |
| 20260504201700 | 15 | 204 | 12.9 | 30.6 | 0.00 | 0.00 | 0.00 | 78 | 1007.5 |
| 20260504201158 | 15 | 205 | 11.3 | 33.8 | 0.00 | 0.00 | 0.00 | 79 | 1007.7 |
| 20260504200655 | 14 | 194 | 16.1 | 27.4 | 0.00 | 0.00 | 0.00 | 78 | 1007.7 |
| 20260504200151 | 15 | 179 | 9.7 | 32.2 | 0.00 | 0.00 | 0.00 | 78 | 1007.6 |
| 20260504195647 | 15 | 209 | 19.3 | 29.0 | 0.00 | 0.00 | 0.00 | 77 | 1007.8 |
| 20260504195143 | 15 | 199 | 12.9 | 29.0 | 0.00 | 0.00 | 0.00 | 77 | 1007.8 |
| 20260504194640 | 15 | 183 | 17.7 | 30.6 | 0.00 | 0.00 | 0.00 | 78 | 1008.0 |
| 20260504194136 | 15 | 169 | 19.3 | 32.2 | 0.00 | 0.00 | 0.00 | 77 | 1008.2 |
| 20260504193633 | 15 | 189 | 17.7 | 24.1 | 0.00 | 0.00 | 0.00 | 78 | 1008.0 |
| 20260504193131 | 15 | 209 | 17.7 | 30.6 | 0.00 | 0.00 | 0.00 | 78 | 1008.1 |
| 20260504192629 | 15 | 194 | 12.9 | 24.1 | 0.00 | 0.00 | 0.00 | 78 | 1008.3 |
| 20260504192126 | 15 | 203 | 17.7 | 25.7 | 0.00 | 0.00 | 0.00 | 78 | 1008.1 |
| 20260504191625 | 15 | 191 | 8.0 | 32.2 | 0.00 | 0.00 | 0.00 | 78 | 1008.1 |
| 20260504191121 | 15 | 184 | 14.5 | 27.4 | 0.00 | 0.00 | 0.00 | 77 | 1008.3 |
| 20260504190617 | 15 | 210 | 11.3 | 29.0 | 0.00 | 0.00 | 0.00 | 79 | 1008.3 |
| 20260504190114 | 15 | 206 | 8.0 | 43.5 | 0.00 | 0.00 | 0.00 | 79 | 1008.4 |
| 20260504185610 | 15 | 199 | 11.3 | 27.4 | 0.00 | 0.00 | 0.00 | 77 | 1008.4 |
| 20260504185107 | 15 | 186 | 9.7 | 24.1 | 0.00 | 0.00 | 0.00 | 76 | 1008.5 |
| 20260504184602 | 15 | 188 | 35.4 | 35.4 | 0.00 | 0.00 | 0.00 | 76 | 1008.3 |
| 20260504184058 | 15 | 207 | 12.9 | 38.6 | 0.00 | 0.00 | 0.00 | 76 | 1008.4 |
| 20260504183555 | 15 | 180 | 9.7 | 35.4 | 0.00 | 0.00 | 0.00 | 76 | 1008.9 |
| 20260504183053 | 15 | 196 | 22.5 | 33.8 | 0.00 | 0.00 | 0.00 | 75 | 1008.6 |
| 20260504182550 | 15 | 180 | 9.7 | 29.0 | 0.00 | 0.00 | 0.00 | 77 | 1008.7 |
| 20260504182047 | 15 | 205 | 11.3 | 40.2 | 0.00 | 0.00 | 0.00 | 76 | 1008.6 |
| 20260504181544 | 15 | 207 | 14.5 | 33.8 | 0.00 | 0.00 | 0.00 | 76 | 1008.7 |
| 20260504181042 | 15 | 182 | 12.9 | 25.7 | 0.00 | 0.00 | 0.00 | 76 | 1008.9 |
| 20260504180541 | 15 | 193 | 24.1 | 29.0 | 0.00 | 0.00 | 0.00 | 76 | 1009.0 |
| 20260504180039 | 15 | 185 | 8.0 | 41.8 | 0.00 | 0.00 | 0.00 | 77 | 1008.8 |
| 20260504175536 | 15 | 189 | 8.0 | 22.5 | 0.00 | 0.00 | 0.00 | 77 | 1008.9 |
| 20260504175033 | 15 | 195 | 9.7 | 27.4 | 0.00 | 0.00 | 0.00 | 78 | 1009.0 |
| 20260504174531 | 15 | 183 | 24.1 | 38.6 | 0.00 | 0.00 | 0.00 | 78 | 1009.2 |
| 20260504174028 | 15 | 210 | 22.5 | 27.4 | 0.00 | 0.00 | 0.00 | 76 | 1009.1 |
| 20260504173525 | 15 | 201 | 12.9 | 30.6 | 0.00 | 0.00 | 0.00 | 78 | 1009.0 |
| 20260504173022 | 15 | 204 | 19.3 | 30.6 | 0.00 | 0.00 | 0.00 | 77 | 1008.9 |
| 20260504172518 | 15 | 194 | 3.2 | 33.8 | 0.00 | 0.00 | 0.00 | 79 | 1009.2 |
| 20260504172015 | 15 | 190 | 16.1 | 24.1 | 0.00 | 0.00 | 0.00 | 79 | 1009.2 |
| 20260504171512 | 15 | 196 | 17.7 | 25.7 | 0.00 | 0.00 | 0.00 | 80 | 1009.2 |
| 20260504171008 | 14 | 203 | 12.9 | 27.4 | 0.00 | 0.00 | 0.00 | 80 | 1009.4 |
| 20260504170504 | 14 | 192 | 8.0 | 32.2 | 0.00 | 0.00 | 0.00 | 80 | 1009.5 |
| 20260504160425 | 15 | 207 | 14.5 | 22.5 | 0.00 | 0.00 | 0.00 | 77 | 1010.1 |
| 20260504150848 | 15 | 200 | 11.3 | 20.9 | 0.00 | 0.00 | 0.00 | 67 | 1010.6 |
| 20260504150345 | 15 | 175 | 11.3 | 20.9 | 0.00 | 0.00 | 0.00 | 68 | 1010.5 |
| 20260504141315 | 14 | 171 | 11.3 | 27.4 | 0.00 | 0.00 | 0.00 | 67 | 1010.8 |
| 20260504140812 | 15 | 224 | 12.9 | 20.9 | 0.00 | 0.00 | 0.00 | 66 | 1010.8 |
| 20260504140307 | 14 | 198 | 9.7 | 19.3 | 0.00 | 0.00 | 0.00 | 67 | 1010.7 |
| 20260504130736 | 13 | 213 | 14.5 | 20.9 | 0.00 | 0.00 | 0.00 | 68 | 1011.4 |
| 20260504130232 | 13 | 202 | 8.0 | 25.7 | 0.00 | 0.00 | 0.00 | 68 | 1011.1 |
| 20260504120156 | 12 | 209 | 6.4 | 17.7 | 0.00 | 0.00 | 0.00 | 73 | 1011.6 |
| 20260504110623 | 11 | 194 | 8.0 | 22.5 | 0.00 | 0.00 | 0.00 | 72 | 1011.5 |
| 20260504110119 | 10 | 224 | 11.3 | 17.7 | 0.00 | 0.00 | 0.00 | 72 | 1011.5 |
| 20260504100545 | 9 | 155 | 3.2 | 11.3 | 0.00 | 0.00 | 0.00 | 79 | 1011.2 |
| 20260504081938 | 10 | 225 | 0.0 | 11.3 | 0.00 | 0.00 | 0.00 | 65 | 1010.7 |
| 20260504081435 | 10 | 206 | 4.8 | 9.7 | 0.00 | 0.00 | 0.00 | 66 | 1010.5 |
| 20260504080931 | 10 | 226 | 11.3 | 16.1 | 0.00 | 0.00 | 0.00 | 68 | 1010.7 |
| 20260504080428 | 10 | 238 | 0.0 | 22.5 | 0.00 | 0.00 | 0.00 | 68 | 1010.4 |
| 20260504070356 | 10 | 218 | 6.4 | 17.7 | 0.00 | 0.00 | 0.00 | 63 | 1010.3 |
| 20260504050743 | 10 | 261 | 3.2 | 16.1 | 0.00 | 0.00 | 0.00 | 71 | 1009.8 |
| 20260504050241 | 10 | 217 | 4.8 | 12.9 | 0.00 | 0.00 | 0.00 | 71 | 1009.7 |
| 20260504045738 | 10 | 225 | 6.4 | 14.5 | 0.00 | 0.00 | 0.00 | 70 | 1009.7 |
| 20260504045232 | 10 | 220 | 6.4 | 14.5 | 0.00 | 0.00 | 0.00 | 70 | 1009.6 |
| 20260504044731 | 10 | 217 | 6.4 | 16.1 | 0.00 | 0.00 | 0.00 | 72 | 1009.6 |
| 20260504044228 | 10 | 232 | 6.4 | 14.5 | 0.00 | 0.00 | 0.00 | 74 | 1009.7 |
| 20260504043725 | 10 | 214 | 8.0 | 12.9 | 0.00 | 0.00 | 0.00 | 74 | 1009.8 |
| 20260504043222 | 10 | 214 | 6.4 | 9.7 | 0.00 | 0.00 | 0.00 | 72 | 1009.7 |
| 20260504042719 | 10 | 202 | 3.2 | 8.0 | 0.00 | 0.00 | 0.00 | 69 | 1009.8 |
| 20260504042216 | 10 | 209 | 4.8 | 11.3 | 0.00 | 0.00 | 0.00 | 66 | 1009.6 |
| 20260504041712 | 10 | 198 | 4.8 | 9.7 | 0.00 | 0.00 | 0.00 | 66 | 1009.8 |
| 20260504041207 | 11 | 199 | 1.6 | 9.7 | 0.00 | 0.00 | 0.00 | 66 | 1009.7 |
| 20260504040704 | 11 | 223 | 6.4 | 14.5 | 0.00 | 0.00 | 0.00 | 66 | 1009.5 |
| 20260504040202 | 11 | 218 | 6.4 | 9.7 | 0.00 | 0.00 | 0.00 | 65 | 1009.3 |
| 20260504035658 | 11 | 209 | 4.8 | 14.5 | 0.00 | 0.00 | 0.00 | 64 | 1009.5 |
| 20260504035155 | 11 | 212 | 8.0 | 16.1 | 0.00 | 0.00 | 0.00 | 65 | 1009.5 |
| 20260504034652 | 11 | 217 | 3.2 | 11.3 | 0.00 | 0.00 | 0.00 | 66 | 1009.5 |
| 20260504034149 | 11 | 218 | 4.8 | 16.1 | 0.00 | 0.00 | 0.00 | 67 | 1009.4 |
| 20260504033647 | 10 | 216 | 3.2 | 12.9 | 0.00 | 0.00 | 0.00 | 72 | 1009.4 |
| 20260504033144 | 10 | 215 | 4.8 | 11.3 | 0.00 | 0.00 | 0.00 | 74 | 1009.3 |
| 20260504032641 | 11 | 207 | 6.4 | 8.0 | 0.00 | 0.00 | 0.00 | 72 | 1009.3 |
| 20260504032138 | 11 | 201 | 3.2 | 11.3 | 0.00 | 0.00 | 0.00 | 64 | 1009.4 |
| 20260504031635 | 11 | 249 | 6.4 | 12.9 | 0.00 | 0.00 | 0.00 | 61 | 1009.2 |
| 20260504031131 | 11 | 170 | 4.8 | 8.0 | 0.00 | 0.00 | 0.00 | 60 | 1009.4 |
| 20260504030628 | 11 | 237 | 8.0 | 11.3 | 0.00 | 0.00 | 0.00 | 59 | 1009.3 |
| 20260504030125 | 11 | 223 | 6.4 | 12.9 | 0.00 | 0.00 | 0.00 | 60 | 1009.4 |
| 20260504025622 | 11 | 201 | 3.2 | 16.1 | 0.00 | 0.00 | 0.00 | 62 | 1009.3 |
| 20260504025119 | 11 | 236 | 6.4 | 8.0 | 0.00 | 0.00 | 0.00 | 64 | 1009.4 |
| 20260504024616 | 11 | 222 | 4.8 | 17.7 | 0.00 | 0.00 | 0.00 | 63 | 1009.3 |
| 20260504024112 | 11 | 226 | 3.2 | 14.5 | 0.00 | 0.00 | 0.00 | 65 | 1009.3 |
| 20260504023609 | 11 | 213 | 4.8 | 6.4 | 0.00 | 0.00 | 0.00 | 66 | 1009.1 |
| 20260504023105 | 11 | 225 | 3.2 | 8.0 | 0.00 | 0.00 | 0.00 | 62 | 1009.5 |
| 20260504022601 | 11 | 228 | 6.4 | 9.7 | 0.00 | 0.00 | 0.00 | 60 | 1009.3 |
| 20260504022057 | 11 | 261 | 6.4 | 11.3 | 0.00 | 0.00 | 0.00 | 60 | 1009.3 |
| 20260504021555 | 11 | 205 | 3.2 | 8.0 | 0.00 | 0.00 | 0.00 | 61 | 1009.3 |
| 20260504021052 | 11 | 226 | 3.2 | 11.3 | 0.00 | 0.00 | 0.00 | 61 | 1009.3 |
| 20260504020549 | 11 | 213 | 4.8 | 4.8 | 0.00 | 0.00 | 0.00 | 61 | 1009.2 |
| 20260504020045 | 11 | 206 | 3.2 | 8.0 | 0.00 | 0.00 | 0.00 | 58 | 1009.4 |
| 20260504015542 | 11 | 243 | 4.8 | 6.4 | 0.00 | 0.00 | 0.00 | 58 | 1009.4 |
| 20260504015037 | 11 | 186 | 1.6 | 6.4 | 0.00 | 0.00 | 0.00 | 59 | 1009.3 |
| 20260504014535 | 11 | 237 | 0.0 | 3.2 | 0.00 | 0.00 | 0.00 | 62 | 1009.2 |
| 20260504014032 | 11 | 179 | 1.6 | 4.8 | 0.00 | 0.00 | 0.00 | 61 | 1009.0 |
| 20260504013530 | 11 | 185 | 1.6 | 4.8 | 0.00 | 0.00 | 0.00 | 58 | 1008.9 |
| 20260504013026 | 11 | 191 | 1.6 | 3.2 | 0.00 | 0.00 | 0.00 | 57 | 1009.0 |
| 20260504012523 | 11 | 185 | 1.6 | 4.8 | 0.00 | 0.00 | 0.00 | 55 | 1008.8 |
| 20260504012021 | 11 | 189 | 1.6 | 4.8 | 0.00 | 0.00 | 0.00 | 56 | 1009.1 |
| 20260504011517 | 11 | 208 | 3.2 | 4.8 | 0.00 | 0.00 | 0.00 | 54 | 1009.1 |
| 20260504011013 | 11 | 172 | 3.2 | 8.0 | 0.00 | 0.00 | 0.00 | 49 | 1009.1 |
| 20260504010509 | 11 | 126 | 3.2 | 4.8 | 0.00 | 0.00 | 0.00 | 44 | 1008.7 |
| 20260504010005 | 11 | 89 | 0.0 | 1.6 | 0.00 | 0.00 | 0.00 | 44 | 1008.7 |
| 20260504005502 | 11 | 140 | 0.0 | 3.2 | 0.00 | 0.00 | 0.00 | 42 | 1008.6 |
| 20260504005000 | 11 | 138 | 1.6 | 3.2 | 0.00 | 0.00 | 0.00 | 41 | 1008.6 |
| 20260504004457 | 12 | 186 | 0.0 | 3.2 | 0.00 | 0.00 | 0.00 | 40 | 1008.5 |
| 20260504003954 | 12 | 150 | 0.0 | 3.2 | 0.00 | 0.00 | 0.00 | 38 | 1008.5 |
| 20260504003450 | 12 | 163 | 1.6 | 3.2 | 0.00 | 0.00 | 0.00 | 38 | 1008.4 |
| 20260504002947 | 12 | 152 | 0.0 | 3.2 | 0.00 | 0.00 | 0.00 | 38 | 1008.5 |
| 20260504002444 | 12 | 203 | 1.6 | 3.2 | 0.00 | 0.00 | 0.00 | 37 | 1008.2 |
| 20260504001942 | 13 | 209 | 3.2 | 4.8 | 0.00 | 0.00 | 0.00 | 35 | 1008.2 |
| 20260504001439 | 13 | 229 | 0.0 | 3.2 | 0.00 | 0.00 | 0.00 | 35 | 1008.1 |
| 20260504000936 | 13 | 271 | 4.8 | 8.0 | 0.00 | 0.00 | 0.00 | 34 | 1008.1 |
| 20260504000433 | 13 | 212 | 1.6 | 9.7 | 0.00 | 0.00 | 0.00 | 34 | 1007.9 |
| 20260503235930 | 13 | 255 | 3.2 | 8.0 | 0.00 | 0.00 | 0.00 | 35 | 1007.9 |
| 20260503235428 | 13 | 321 | 4.8 | 6.4 | 0.00 | 0.00 | 0.00 | 33 | 1007.7 |
| 20260503234925 | 13 | 230 | 4.8 | 12.9 | 0.00 | 0.00 | 0.00 | 33 | 1007.8 |
| 20260503234422 | 14 | 248 | 8.0 | 19.3 | 0.00 | 0.00 | 0.00 | 32 | 1007.8 |
| 20260503233920 | 14 | 231 | 4.8 | 12.9 | 0.00 | 0.00 | 0.00 | 31 | 1007.8 |
| 20260503233416 | 14 | 237 | 3.2 | 11.3 | 0.00 | 0.00 | 0.00 | 32 | 1007.8 |
| 20260503232913 | 14 | 239 | 1.6 | 12.9 | 0.00 | 0.00 | 0.00 | 31 | 1007.8 |
| 20260503232410 | 15 | 221 | 11.3 | 17.7 | 0.00 | 0.00 | 0.00 | 31 | 1007.6 |
| 20260503231908 | 15 | 233 | 12.9 | 16.1 | 0.00 | 0.00 | 0.00 | 31 | 1007.6 |
| 20260503231405 | 15 | 274 | 8.0 | 14.5 | 0.00 | 0.00 | 0.00 | 30 | 1007.6 |
| 20260503230901 | 15 | 188 | 8.0 | 16.1 | 0.00 | 0.00 | 0.00 | 29 | 1007.4 |
| 20260503230358 | 15 | 283 | 8.0 | 25.7 | 0.00 | 0.00 | 0.00 | 30 | 1007.6 |
| 20260503225855 | 15 | 225 | 8.0 | 30.6 | 0.00 | 0.00 | 0.00 | 30 | 1007.4 |
| 20260503225351 | 15 | 292 | 6.4 | 24.1 | 0.00 | 0.00 | 0.00 | 29 | 1007.6 |
| 20260503224848 | 15 | 283 | 6.4 | 22.5 | 0.00 | 0.00 | 0.00 | 30 | 1007.4 |
| 20260503224345 | 15 | 292 | 8.0 | 41.8 | 0.00 | 0.00 | 0.00 | 29 | 1007.5 |
| 20260503223843 | 15 | 226 | 6.4 | 22.5 | 0.00 | 0.00 | 0.00 | 30 | 1007.2 |
| 20260503223340 | 15 | 254 | 8.0 | 30.6 | 0.00 | 0.00 | 0.00 | 30 | 1007.4 |
| 20260503222836 | 15 | 245 | 9.7 | 24.1 | 0.00 | 0.00 | 0.00 | 30 | 1007.3 |
| 20260503222335 | 15 | 225 | 8.0 | 22.5 | 0.00 | 0.00 | 0.00 | 29 | 1007.2 |
| 20260503221832 | 16 | 231 | 8.0 | 20.9 | 0.00 | 0.00 | 0.00 | 29 | 1007.4 |
| 20260503221331 | 15 | 177 | 4.8 | 22.5 | 0.00 | 0.00 | 0.00 | 31 | 1007.3 |
| 20260503220827 | 15 | 335 | 6.4 | 24.1 | 0.00 | 0.00 | 0.00 | 29 | 1007.1 |
| 20260503220324 | 15 | 211 | 8.0 | 22.5 | 0.00 | 0.00 | 0.00 | 30 | 1007.3 |
| 20260503215820 | 15 | 257 | 4.8 | 30.6 | 0.00 | 0.00 | 0.00 | 32 | 1007.3 |
| 20260503215317 | 15 | 200 | 6.4 | 41.8 | 0.00 | 0.00 | 0.00 | 29 | 1007.4 |
| 20260503214816 | 15 | 306 | 9.7 | 32.2 | 0.00 | 0.00 | 0.00 | 31 | 1007.3 |
| 20260503214312 | 15 | 246 | 11.3 | 32.2 | 0.00 | 0.00 | 0.00 | 31 | 1007.3 |
| 20260503213810 | 15 | 285 | 6.4 | 32.2 | 0.00 | 0.00 | 0.00 | 31 | 1007.2 |
| 20260503213307 | 15 | 296 | 16.1 | 30.6 | 0.00 | 0.00 | 0.00 | 30 | 1007.1 |
| 20260503212804 | 15 | 334 | 6.4 | 32.2 | 0.00 | 0.00 | 0.00 | 30 | 1007.1 |
| 20260503212301 | 15 | 287 | 4.8 | 22.5 | 0.00 | 0.00 | 0.00 | 31 | 1007.1 |
| 20260503211759 | 15 | 278 | 11.3 | 29.0 | 0.00 | 0.00 | 0.00 | 30 | 1007.2 |
| 20260503211255 | 15 | 148 | 17.7 | 29.0 | 0.00 | 0.00 | 0.00 | 32 | 1007.1 |
| 20260503210755 | 15 | 32 | 9.7 | 30.6 | 0.00 | 0.00 | 0.00 | 31 | 1006.9 |
| 20260503210253 | 15 | 285 | 9.7 | 35.4 | 0.00 | 0.00 | 0.00 | 32 | 1007.0 |
| 20260503205748 | 15 | 336 | 14.5 | 29.0 | 0.00 | 0.00 | 0.00 | 31 | 1006.9 |
| 20260503205245 | 15 | 256 | 6.4 | 27.4 | 0.00 | 0.00 | 0.00 | 31 | 1007.0 |
| 20260503204741 | 15 | 357 | 14.5 | 20.9 | 0.00 | 0.00 | 0.00 | 32 | 1007.1 |
| 20260503204239 | 15 | 253 | 0.0 | 38.6 | 0.00 | 0.00 | 0.00 | 34 | 1007.1 |
| 20260503203736 | 15 | 299 | 12.9 | 30.6 | 0.00 | 0.00 | 0.00 | 32 | 1007.1 |
| 20260503203233 | 15 | 286 | 12.9 | 29.0 | 0.00 | 0.00 | 0.00 | 34 | 1006.9 |
| 20260503202730 | 15 | 254 | 25.7 | 35.4 | 0.00 | 0.00 | 0.00 | 32 | 1007.0 |